FW5890 Weather Reports


Display with metric or nautical units.
time (UTC)temp
F
wind
direction
speed
MPH
gust
MPH
rain 1hr
in
rain 24hr
in
rain mn
in
humidity
%
barometer
mb
20260509160522 58 73 2.0 9.0 0.00 0.00 0.00 47 1007.3
20260509160045 58 286 3.0 9.0 0.00 0.00 0.00 47 1007.4
20260509155512 58 341 2.0 11.0 0.00 0.00 0.00 47 1007.3
20260509155035 58 121 1.0 8.0 0.00 0.00 0.00 51 1007.2
20260509154503 58 269 2.0 8.0 0.00 0.00 0.00 48 1007.1
20260509154029 58 148 2.0 6.0 0.00 0.00 0.00 48 1007.1
20260509153606 58 311 3.0 6.0 0.00 0.00 0.00 48 1007.0
20260509153032 58 229 1.0 4.0 0.00 0.00 0.00 52 1007.0
20260509152537 57 67 2.0 5.0 0.00 0.00 0.00 51 1007.0
20260509152057 57 69 1.0 6.0 0.00 0.00 0.00 52 1006.9
20260509151522 56 294 2.0 6.0 0.00 0.00 0.00 54 1006.8
20260509151051 56 146 2.0 8.0 0.00 0.00 0.00 55 1006.8
20260509150501 56 24 2.0 9.0 0.00 0.00 0.00 56 1006.7
20260509150033 56 321 2.0 9.0 0.00 0.00 0.00 58 1006.6
20260509145541 56 103 1.0 10.0 0.00 0.00 0.00 59 1006.6
20260509145015 56 189 2.0 10.0 0.00 0.00 0.00 59 1006.5
20260509144535 55 61 1.0 10.0 0.00 0.00 0.00 61 1006.5
20260509144002 56 332 3.0 10.0 0.00 0.00 0.00 59 1006.4
20260509143531 56 312 2.0 7.0 0.00 0.00 0.00 60 1006.3
20260509143009 55 159 2.0 6.0 0.00 0.00 0.00 61 1006.3
20260509142547 55 273 3.0 7.0 0.00 0.00 0.00 62 1006.2
20260509142108 55 209 1.0 5.0 0.00 0.00 0.00 66 1006.1
20260509141543 55 139 1.0 8.0 0.00 0.00 0.00 64 1006.0
20260509141016 55 180 2.0 10.0 0.00 0.00 0.00 64 1005.9
20260509140603 56 296 2.0 7.0 0.00 0.00 0.00 65 1005.8
20260509140017 55 140 1.0 8.0 0.00 0.00 0.00 69 1005.6
20260509135538 55 150 3.0 8.0 0.00 0.00 0.00 67 1005.7
20260509135017 54 185 2.0 9.0 0.00 0.00 0.00 70 1005.5
20260509134600 53 73 2.0 9.0 0.00 0.00 0.00 72 1005.5
20260509134041 53 99 2.0 7.0 0.00 0.00 0.00 73 1005.4
20260509133537 52 13 2.0 8.0 0.00 0.00 0.00 73 1005.4
20260509133007 52 113 2.0 8.0 0.00 0.00 0.00 71 1005.4
20260509132540 53 258 1.0 9.0 0.00 0.00 0.00 71 1005.2
20260509132010 54 51 2.0 9.0 0.00 0.00 0.00 70 1005.1
20260509131534 53 232 0.0 5.0 0.00 0.00 0.00 72 1005.0
20260509131020 53 333 1.0 8.0 0.00 0.00 0.00 73 1004.8
20260509130605 53 73 3.0 8.0 0.00 0.00 0.00 74 1004.7
20260509130022 52 112 1.0 9.0 0.00 0.00 0.00 75 1004.7
20260509125558 52 110 2.0 9.0 0.00 0.00 0.00 75 1004.6
20260509125044 52 360 1.0 6.0 0.00 0.00 0.00 76 1004.6
20260509124600 52 360 2.0 5.0 0.00 0.00 0.00 75 1004.5
20260509124040 52 360 2.0 5.0 0.00 0.00 0.00 76 1004.3
20260509123602 52 360 1.0 3.0 0.00 0.00 0.00 76 1004.3
20260509123022 52 360 1.0 11.0 0.00 0.00 0.00 77 1004.2
20260509122502 52 360 1.0 11.0 0.00 0.00 0.00 77 1004.1
20260509122041 52 360 1.0 6.0 0.00 0.00 0.00 77 1004.0
20260509121520 52 360 2.0 10.0 0.00 0.00 0.00 76 1003.9
20260509121014 52 360 2.0 10.0 0.00 0.00 0.00 76 1003.8
20260509120538 52 360 3.0 8.0 0.00 0.00 0.00 76 1003.8
20260509120033 52 360 2.0 8.0 0.00 0.00 0.00 75 1003.7
20260509115511 52 360 2.0 8.0 0.00 0.00 0.00 74 1003.6
20260509115003 52 360 3.0 8.0 0.00 0.00 0.00 74 1003.5
20260509114550 52 360 2.0 4.0 0.00 0.00 0.00 74 1003.4
20260509114025 52 360 0.0 4.0 0.00 0.00 0.00 74 1003.4
20260509113501 52 360 0.0 3.0 0.00 0.00 0.00 74 1003.3
20260509113045 52 360 1.0 3.0 0.00 0.00 0.00 74 1003.3
20260509112530 52 360 0.0 2.0 0.00 0.00 0.00 74 1003.2
20260509112105 52 360 0.0 2.0 0.00 0.00 0.00 73 1003.2
20260509111549 51 360 0.0 2.0 0.00 0.00 0.00 72 1003.0
20260509111027 51 360 0.0 2.0 0.00 0.00 0.00 73 1003.1
20260509110524 51 360 1.0 2.0 0.00 0.00 0.00 73 1002.8
20260509110052 51 360 0.0 2.0 0.00 0.00 0.00 73 1002.9
20260509105547 51 360 0.0 2.0 0.00 0.00 0.00 73 1002.9
20260509105034 51 360 0.0 1.0 0.00 0.00 0.00 73 1002.7
20260509104554 51 360 0.0 1.0 0.00 0.00 0.00 72 1002.6
20260509104003 52 360 0.0 0.0 0.00 0.00 0.00 70 1002.6
20260509103601 52 360 0.0 0.0 0.00 0.00 0.00 70 1002.7
20260509103049 52 360 0.0 3.0 0.00 0.00 0.00 67 1002.6
20260509102530 52 360 0.0 3.0 0.00 0.00 0.00 66 1002.2
20260509102050 52 360 0.0 3.0 0.00 0.00 0.00 65 1002.3
20260509101535 52 360 1.0 3.0 0.00 0.00 0.00 65 1002.5
20260509101108 52 360 0.0 2.0 0.00 0.00 0.00 64 1002.3
20260509100518 52 360 0.0 1.0 0.00 0.00 0.00 64 1002.5
20260509100008 52 360 0.0 1.0 0.00 0.00 0.00 65 1002.8
20260509095540 52 360 0.0 1.0 0.00 0.00 0.00 64 1003.0
20260509095008 52 360 0.0 2.0 0.00 0.00 0.00 63 1003.1
20260509094552 52 360 0.0 2.0 0.00 0.00 0.00 63 1003.0
20260509094002 52 360 0.0 2.0 0.00 0.00 0.00 64 1002.9
20260509093529 52 360 0.0 2.0 0.00 0.00 0.00 64 1002.9
20260509093108 51 360 0.0 2.0 0.00 0.00 0.00 63 1002.8
20260509092539 51 360 0.0 2.0 0.00 0.00 0.00 62 1002.9
20260509092001 51 360 0.0 2.0 0.00 0.00 0.00 62 1002.8
20260509091555 51 360 0.0 1.0 0.00 0.00 0.00 61 1002.8
20260509091014 52 360 0.0 2.0 0.00 0.00 0.00 60 1002.7
20260509090600 51 360 0.0 2.0 0.00 0.00 0.00 60 1002.6
20260509090032 51 360 0.0 3.0 0.00 0.00 0.00 59 1002.6
20260509085504 51 360 0.0 3.0 0.00 0.00 0.00 58 1002.5
20260509085026 51 360 0.0 3.0 0.00 0.00 0.00 59 1002.6
20260509084607 51 360 0.0 3.0 0.00 0.00 0.00 59 1002.5
20260509084016 51 360 0.0 3.0 0.00 0.00 0.00 60 1002.5
20260509083533 50 360 0.0 3.0 0.00 0.00 0.00 62 1002.4
20260509083012 49 360 1.0 2.0 0.00 0.00 0.00 65 1002.7
20260509082552 49 360 0.0 0.0 0.00 0.00 0.00 65 1002.0
20260509082002 49 360 0.0 0.0 0.00 0.00 0.00 65 1001.7
20260509081522 48 360 0.0 0.0 0.00 0.00 0.00 66 1001.6
20260509081042 48 360 0.0 1.0 0.00 0.00 0.00 70 1001.6
20260509080604 47 360 0.0 1.0 0.00 0.00 0.00 72 1001.4
20260509080014 47 360 0.0 0.0 0.00 0.00 0.00 72 1001.4
20260509075532 47 360 0.0 0.0 0.00 0.00 0.00 71 1001.5
20260509075019 47 360 0.0 0.0 0.00 0.00 0.00 72 1001.4
20260509074612 47 360 0.0 0.0 0.00 0.00 0.00 71 1001.2
20260509074041 47 360 0.0 0.0 0.00 0.00 0.00 69 1001.2
20260509073602 47 360 0.0 0.0 0.00 0.00 0.00 70 1001.4
20260509073037 47 360 0.0 0.0 0.00 0.00 0.00 70 1001.3
20260509072508 47 360 0.0 0.0 0.00 0.00 0.00 73 1001.4
20260509072028 47 360 0.0 0.0 0.00 0.00 0.00 74 1001.6
20260509071559 47 360 0.0 0.0 0.00 0.00 0.00 72 1001.6
20260509071108 47 360 0.0 0.0 0.00 0.00 0.00 69 1001.8
20260509070521 47 360 0.0 0.0 0.00 0.00 0.00 70 1001.8
20260509065523 47 360 0.0 0.0 0.00 0.00 0.00 71 1001.8
20260509065005 47 360 0.0 0.0 0.00 0.00 0.00 73 1001.8
20260509064533 47 360 0.0 0.0 0.00 0.00 0.00 76 1001.8
20260509064049 47 360 0.0 0.0 0.00 0.00 0.00 72 1001.9
20260509063609 47 360 0.0 0.0 0.00 0.00 0.00 66 1002.0
20260509063027 47 360 0.0 0.0 0.00 0.00 0.00 65 1002.1
20260509062603 48 360 0.0 0.0 0.00 0.00 0.00 65 1002.1
20260509062014 48 360 0.0 0.0 0.00 0.00 0.00 65 1002.0
20260509061602 49 360 0.0 0.0 0.00 0.00 0.00 65 1002.1
20260509061029 49 360 0.0 0.0 0.00 0.00 0.00 68 1002.1
20260509060545 50 209 0.0 0.0 0.00 0.00 0.00 63 1002.2
20260509060025 50 209 0.0 0.0 0.00 0.00 0.00 65 1002.1
20260509055540 51 209 0.0 0.0 0.00 0.00 0.00 68 1002.2
20260509055018 51 209 0.0 0.0 0.00 0.00 0.00 63 1002.3
20260509054610 51 209 0.0 0.0 0.00 0.00 0.00 53 1002.5
20260509054031 51 209 0.0 0.0 0.00 0.00 0.00 51 1002.6
20260509053552 51 209 0.0 0.0 0.00 0.00 0.00 50 1002.6
20260509053002 52 209 0.0 0.0 0.00 0.00 0.00 49 1002.7
20260509052522 52 209 0.0 0.0 0.00 0.00 0.00 49 1002.6
20260509052002 53 360 0.0 0.0 0.00 0.00 0.00 49 1002.6
20260509051558 53 360 0.0 0.0 0.00 0.00 0.00 48 1002.6
20260509051029 54 360 0.0 0.0 0.00 0.00 0.00 48 1002.8
20260509050508 54 360 0.0 0.0 0.00 0.00 0.00 48 1002.9
20260509050046 54 360 0.0 0.0 0.00 0.00 0.00 47 1003.0
20260509045533 55 360 0.0 0.0 0.00 0.00 0.00 47 1003.0
20260509045052 55 209 0.0 0.0 0.00 0.00 0.00 45 1003.0
20260509044502 56 209 0.0 0.0 0.00 0.00 0.00 45 1003.0
20260509044037 56 209 0.0 1.0 0.00 0.00 0.00 45 1003.0
20260509043605 56 209 0.0 1.0 0.00 0.00 0.00 43 1003.1
20260509043017 57 209 0.0 1.0 0.00 0.00 0.00 43 1003.1
20260509042535 57 209 0.0 0.0 0.00 0.00 0.00 43 1003.2
20260509042012 57 209 0.0 0.0 0.00 0.00 0.00 42 1003.2
20260509041550 58 209 0.0 3.0 0.00 0.00 0.00 41 1003.2
20260509041110 58 209 0.0 3.0 0.00 0.00 0.00 41 1003.2
20260509040519 58 209 0.0 3.0 0.00 0.00 0.00 41 1003.1
20260509040048 59 209 1.0 3.0 0.00 0.00 0.00 39 1003.1
20260509035520 59 252 0.0 3.0 0.00 0.00 0.00 40 1003.1
20260509035036 59 176 0.0 2.0 0.00 0.00 0.00 38 1003.2
20260509034555 59 178 0.0 3.0 0.00 0.00 0.00 39 1003.0
20260509034022 60 205 0.0 4.0 0.00 0.00 0.00 39 1003.1
20260509033540 60 199 0.0 4.0 0.00 0.00 0.00 38 1003.1
20260509033100 60 355 0.0 4.0 0.00 0.00 0.00 38 1003.0
20260509032535 60 282 1.0 5.0 0.00 0.00 0.00 38 1003.0
20260509032059 61 180 1.0 8.0 0.00 0.00 0.00 38 1002.9
20260509031510 61 157 1.0 8.0 0.00 0.00 0.00 38 1002.8
20260509031028 61 235 0.0 6.0 0.00 0.00 0.00 39 1002.9
20260509030507 61 123 1.0 8.0 0.00 0.00 0.00 38 1002.8
20260509030051 61 233 1.0 8.0 0.00 0.00 0.00 39 1002.7
20260509025609 61 320 1.0 5.0 0.00 0.00 0.00 38 1002.7
20260509025044 61 254 1.0 4.0 0.00 0.00 0.00 39 1002.7
20260509024533 61 5 1.0 6.0 0.00 0.00 0.00 39 1002.6
20260509024055 61 360 2.0 6.0 0.00 0.00 0.00 39 1002.6
20260509023540 62 318 0.0 4.0 0.00 0.00 0.00 38 1002.5
20260509023007 62 298 0.0 3.0 0.00 0.00 0.00 38 1002.5
20260509022536 62 306 0.0 4.0 0.00 0.00 0.00 37 1002.5
20260509022018 63 275 0.0 5.0 0.00 0.00 0.00 37 1002.3
20260509021600 63 327 0.0 5.0 0.00 0.00 0.00 36 1002.2
20260509021019 63 272 1.0 5.0 0.00 0.00 0.00 36 1002.1
20260509020502 64 351 1.0 5.0 0.00 0.00 0.00 35 1002.0
20260509020045 64 112 1.0 9.0 0.00 0.00 0.00 35 1001.8
20260509015507 64 50 2.0 9.0 0.00 0.00 0.00 34 1001.8
20260509015047 64 311 2.0 5.0 0.00 0.00 0.00 35 1001.7
20260509014511 64 259 0.0 2.0 0.00 0.00 0.00 34 1001.7
20260509014048 64 259 0.0 3.0 0.00 0.00 0.00 34 1001.7
20260509013527 65 259 1.0 3.0 0.00 0.00 0.00 33 1001.6
20260509013003 65 268 0.0 3.0 0.00 0.00 0.00 32 1001.5
20260509012538 65 251 1.0 3.0 0.00 0.00 0.00 32 1001.5
20260509012028 66 317 0.0 4.0 0.00 0.00 0.00 33 1001.4
20260509011559 66 322 1.0 5.0 0.00 0.00 0.00 32 1001.4
20260509011034 66 335 2.0 5.0 0.00 0.00 0.00 31 1001.4
20260509010556 66 311 1.0 8.0 0.00 0.00 0.00 31 1001.3
20260509010050 67 271 1.0 4.0 0.00 0.00 0.00 31 1001.3
20260509005542 67 318 1.0 3.0 0.00 0.00 0.00 32 1001.3
20260509005031 67 309 1.0 5.0 0.00 0.00 0.00 33 1001.2
20260509004512 67 283 1.0 5.0 0.00 0.00 0.00 31 1001.2
20260509004056 68 235 0.0 5.0 0.00 0.00 0.00 31 1001.2
20260509003540 68 48 1.0 9.0 0.00 0.00 0.00 31 1001.2
20260509003013 68 328 3.0 11.0 0.00 0.00 0.00 29 1001.1
20260509002542 68 246 1.0 11.0 0.00 0.00 0.00 30 1001.2
20260509002021 68 5 4.0 10.0 0.00 0.00 0.00 29 1001.1
20260509001543 69 305 3.0 9.0 0.00 0.00 0.00 30 1001.2
20260509001018 69 315 2.0 12.0 0.00 0.00 0.00 30 1001.1
20260509000536 69 111 2.0 12.0 0.00 0.00 0.00 30 1001.0
20260509000033 69 309 2.0 13.0 0.00 0.00 0.00 31 1001.1
20260508235504 69 345 4.0 13.0 0.00 0.00 0.00 30 1001.1
20260508235046 70 317 4.0 9.0 0.00 0.00 0.00 29 1001.2
20260508234508 70 290 2.0 8.0 0.00 0.00 0.00 31 1001.1
20260508234049 70 296 1.0 10.0 0.00 0.00 0.00 31 1001.2
20260508233527 70 15 2.0 10.0 0.00 0.00 0.00 30 1001.2
20260508233004 70 286 3.0 10.0 0.00 0.00 0.00 30 1001.3
20260508232543 70 322 2.0 8.0 0.00 0.00 0.00 31 1001.2
20260508232104 70 320 3.0 11.0 0.00 0.00 0.00 31 1001.3
20260508231545 70 321 2.0 10.0 0.00 0.00 0.00 30 1001.3
20260508231009 71 345 2.0 5.0 0.00 0.00 0.00 31 1001.3
20260508230544 71 288 1.0 6.0 0.00 0.00 0.00 31 1001.4
20260508230021 71 246 1.0 9.0 0.00 0.00 0.00 30 1001.3
20260508225609 71 311 2.0 9.0 0.00 0.00 0.00 30 1001.3
20260508225024 72 300 2.0 5.0 0.00 0.00 0.00 30 1001.2
20260508224601 72 325 1.0 9.0 0.00 0.00 0.00 32 1001.3
20260508224036 71 285 2.0 10.0 0.00 0.00 0.00 32 1001.2
20260508223509 71 306 2.0 10.0 0.00 0.00 0.00 30 1001.3
20260508223049 72 329 2.0 8.0 0.00 0.00 0.00 30 1001.4
20260508222610 72 332 2.0 9.0 0.00 0.00 0.00 30 1001.2
20260508222018 72 327 2.0 9.0 0.00 0.00 0.00 30 1001.3
20260508221603 71 300 3.0 8.0 0.00 0.00 0.00 30 1001.4
20260508221024 71 277 1.0 4.0 0.00 0.00 0.00 29 1001.4
20260508220506 71 348 0.0 8.0 0.00 0.00 0.00 35 1001.5
20260508220038 70 311 0.0 8.0 0.00 0.00 0.00 31 1001.6
20260508215503 70 284 2.0 8.0 0.00 0.00 0.00 30 1001.7
20260508215041 70 327 2.0 8.0 0.00 0.00 0.00 29 1001.7
20260508214611 71 215 1.0 8.0 0.00 0.00 0.00 29 1001.7
20260508214006 71 328 3.0 9.0 0.00 0.00 0.00 29 1001.8
20260508213603 70 329 3.0 9.0 0.00 0.00 0.00 29 1001.9
20260508213040 70 320 0.0 9.0 0.00 0.00 0.00 29 1001.9
20260508212502 70 300 3.0 9.0 0.00 0.00 0.00 29 1001.9
20260508212043 70 336 0.0 9.0 0.00 0.00 0.00 29 1002.0
20260508211518 70 271 4.0 9.0 0.00 0.00 0.00 29 1002.1
20260508211103 70 31 2.0 9.0 0.00 0.00 0.00 29 1002.2
20260508210535 70 324 4.0 9.0 0.00 0.00 0.00 27 1002.3
20260508210055 70 327 3.0 8.0 0.00 0.00 0.00 28 1002.3
20260508205530 71 323 1.0 6.0 0.00 0.00 0.00 28 1002.4
20260508205055 71 233 2.0 6.0 0.00 0.00 0.00 27 1002.5
20260508204522 71 344 1.0 10.0 0.00 0.00 0.00 29 1002.6
20260508204043 71 218 2.0 10.0 0.00 0.00 0.00 29 1002.6
20260508203516 70 218 1.0 6.0 0.00 0.00 0.00 29 1002.7
20260508203057 70 327 1.0 6.0 0.00 0.00 0.00 27 1002.8
20260508202535 70 317 3.0 11.0 0.00 0.00 0.00 27 1002.9
20260508202055 70 319 3.0 11.0 0.00 0.00 0.00 28 1003.0
20260508201505 70 335 4.0 11.0 0.00 0.00 0.00 30 1003.2
20260508201051 70 207 2.0 10.0 0.00 0.00 0.00 28 1003.1
20260508200523 70 302 2.0 9.0 0.00 0.00 0.00 32 1003.3
20260508200055 70 329 2.0 8.0 0.00 0.00 0.00 30 1003.4
20260508195603 69 321 2.0 11.0 0.00 0.00 0.00 33 1003.4
20260508195013 69 299 2.0 11.0 0.00 0.00 0.00 28 1003.5
20260508194531 69 297 3.0 10.0 0.00 0.00 0.00 29 1003.6
20260508194050 70 334 3.0 8.0 0.00 0.00 0.00 30 1003.7
20260508193525 69 321 2.0 9.0 0.00 0.00 0.00 29 1003.9
20260508193053 69 31 3.0 9.0 0.00 0.00 0.00 29 1003.9
20260508192519 68 321 2.0 9.0 0.00 0.00 0.00 29 1004.0
20260508192039 68 292 1.0 10.0 0.00 0.00 0.00 29 1004.0
20260508191559 69 349 5.0 10.0 0.00 0.00 0.00 28 1004.0
20260508191009 69 161 2.0 10.0 0.00 0.00 0.00 28 1004.1
20260508190529 70 273 2.0 11.0 0.00 0.00 0.00 28 1004.1
20260508190003 69 307 4.0 11.0 0.00 0.00 0.00 28 1004.1
20260508185546 70 311 3.0 10.0 0.00 0.00 0.00 26 1004.2
20260508185021 70 283 3.0 10.0 0.00 0.00 0.00 28 1004.2
20260508184541 70 90 2.0 12.0 0.00 0.00 0.00 28 1004.2
20260508184100 69 325 7.0 12.0 0.00 0.00 0.00 27 1004.2
20260508183539 69 317 4.0 13.0 0.00 0.00 0.00 27 1004.3
20260508183056 69 327 6.0 13.0 0.00 0.00 0.00 27 1004.4
20260508182505 68 295 2.0 10.0 0.00 0.00 0.00 30 1004.6
20260508182029 69 274 2.0 10.0 0.00 0.00 0.00 28 1004.6
20260508181608 70 265 2.0 10.0 0.00 0.00 0.00 28 1004.6
20260508181105 70 302 3.0 14.0 0.00 0.00 0.00 28 1004.8
20260508180539 70 296 3.0 10.0 0.00 0.00 0.00 28 1004.7
20260508180118 70 292 2.0 8.0 0.00 0.00 0.00 28 1005.0
20260508175509 70 297 2.0 10.0 0.00 0.00 0.00 28 1005.1
20260508175028 70 313 2.0 8.0 0.00 0.00 0.00 28 1005.2
20260508174548 69 298 1.0 8.0 0.00 0.00 0.00 33 1005.2
20260508174023 69 292 1.0 8.0 0.00 0.00 0.00 31 1005.4
20260508173556 68 333 3.0 11.0 0.00 0.00 0.00 30 1005.5
20260508173014 68 299 5.0 15.0 0.00 0.00 0.00 28 1005.6
20260508172541 68 338 6.0 15.0 0.00 0.00 0.00 28 1005.7
20260508172028 68 320 2.0 6.0 0.00 0.00 0.00 30 1005.8
20260508171600 68 319 2.0 6.0 0.00 0.00 0.00 30 1005.9
20260508171032 68 254 1.0 4.0 0.00 0.00 0.00 34 1006.0
20260508170501 67 325 0.0 5.0 0.00 0.00 0.00 32 1006.1
20260508170023 66 334 1.0 6.0 0.00 0.00 0.00 34 1006.2
20260508165502 66 293 2.0 12.0 0.00 0.00 0.00 31 1006.3
20260508165055 66 310 2.0 12.0 0.00 0.00 0.00 30 1006.4
20260508164522 66 329 4.0 11.0 0.00 0.00 0.00 33 1006.4
20260508164057 65 244 2.0 5.0 0.00 0.00 0.00 34 1006.4
20260508163518 64 334 1.0 5.0 0.00 0.00 0.00 38 1006.6
20260508163047 64 306 0.0 4.0 0.00 0.00 0.00 38 1006.6
20260508162609 64 331 0.0 5.0 0.00 0.00 0.00 37 1006.7
20260508162041 63 332 2.0 8.0 0.00 0.00 0.00 37 1006.7
20260508161507 63 338 1.0 8.0 0.00 0.00 0.00 38 1006.8